Le nostre stazioni meteo in Italia

Pubblicità
Il mio iltempo24.it
Parma, Italia (16086): Temperatura & dewpoint: 24.03.2020 12:00:00 - 30.03.2020 12:00:00 (CEST)Parma, Italia (16086): velocità del vento: 24.03.2020 12:00:00 - 30.03.2020 12:00:00 (CEST)Parma, Italia (16086): direzione del vento: 24.03.2020 12:00:00 - 30.03.2020 12:00:00 (CEST)Parma, Italia (16086): reduced air pressure: 24.03.2020 12:00:00 - 30.03.2020 12:00:00 (CEST)
Data & Tempo tt [°C] td [°C] ff [km/h] ff [kn] dd ppp [hPa]
30.03.2020 12:00:00 - - - - - -
30.03.2020 11:00:00 13,4 6,3 10 6 E 1014,7
30.03.2020 10:00:00 12,6 5,3 10 6 E 1014,3
30.03.2020 09:00:00 10,9 5,0 7 4 SE 1013,8
30.03.2020 08:00:00 9,6 4,4 6 3 E 1013,3
30.03.2020 07:00:00 10,0 3,9 2 1 ESE 1012,9
30.03.2020 06:00:00 10,3 4,0 4 2 ENE 1012,4
30.03.2020 05:00:00 10,6 4,7 6 3 NNE 1012,2
30.03.2020 04:00:00 11,7 5,8 4 2 ONO 1012,2
30.03.2020 03:00:00 12,4 6,0 4 2 E 1011,5
30.03.2020 02:00:00 13,4 5,3 5 3 SE 1011,5
30.03.2020 01:00:00 14,0 4,8 - - - 1011,5
30.03.2020 00:00:00 14,0 4,6 4 2 ESE 1011,5
29.03.2020 23:00:00 14,3 4,6 7 4 E 1011,5
29.03.2020 22:00:00 15,4 3,8 6 4 S 1011,1
29.03.2020 21:00:00 15,5 4,2 8 5 ESE 1011,1
29.03.2020 20:00:00 16,5 4,5 13 7 SE 1010,7
29.03.2020 19:00:00 18,3 3,4 7 4 E 1010,6
29.03.2020 18:00:00 18,6 2,8 8 5 ENE 1010,4
29.03.2020 17:00:00 19,0 3,2 11 6 E 1010,5
29.03.2020 16:00:00 18,8 2,6 8 5 E 1010,9
29.03.2020 15:00:00 18,1 2,8 11 6 E 1011,6
29.03.2020 14:00:00 18,3 2,2 11 6 ENE 1012,2
29.03.2020 13:00:00 17,6 2,3 8 5 ENE 1012,8
29.03.2020 12:00:00 16,1 3,8 4 2 ENE 1013,4
29.03.2020 11:00:00 13,2 3,6 3 2 NO 1014,1
29.03.2020 10:00:00 12,7 2,8 2 1 S 1013,9
29.03.2020 09:00:00 9,6 2,2 5 3 SSO 1013,9
29.03.2020 08:00:00 8,0 1,6 9 5 SO 1013,8
29.03.2020 07:00:00 8,0 1,8 8 4 OSO 1013,7
29.03.2020 06:00:00 9,1 2,2 8 4 SO 1013,9
29.03.2020 05:00:00 9,8 2,4 9 5 S 1013,8
29.03.2020 04:00:00 9,6 3,1 6 3 SSO 1014,5
29.03.2020 03:00:00 9,5 3,5 3 1 O 1014,9
29.03.2020 02:00:00 9,5 3,5 3 1 O 1014,9
29.03.2020 01:00:00 10,5 3,8 8 5 S 1014,7
29.03.2020 00:00:00 10,5 3,8 8 5 S 1014,7
28.03.2020 23:00:00 11,5 3,8 6 3 S 1014,6
28.03.2020 22:00:00 13,1 4,0 4 2 S 1014,4
28.03.2020 21:00:00 14,6 3,4 3 2 SSE 1014,0
28.03.2020 20:00:00 15,6 3,1 4 2 SSE 1013,7
28.03.2020 19:00:00 16,4 2,8 7 4 E 1013,4
28.03.2020 18:00:00 17,4 - - - - 1013,4
28.03.2020 17:00:00 17,4 1,4 6 3 NE 1013,7
28.03.2020 16:00:00 17,6 2,0 4 2 ESE 1014,2
28.03.2020 15:00:00 17,0 1,8 6 4 N 1014,8
28.03.2020 14:00:00 17,1 1,9 3 1 NNE 1015,5
28.03.2020 13:00:00 15,6 2,4 5 3 NNO 1016,1
28.03.2020 12:00:00 14,3 4,3 6 3 O 1016,6
28.03.2020 11:00:00 12,7 4,1 7 4 O 1017,0
28.03.2020 10:00:00 11,6 4,1 5 3 O 1017,0
28.03.2020 09:00:00 9,3 4,1 7 4 SSO 1017,1
28.03.2020 08:00:00 8,4 4,0 8 4 SO 1017,1
28.03.2020 07:00:00 8,8 4,0 6 4 SO 1017,1
28.03.2020 06:00:00 8,8 4,4 8 4 SSO 1017,4
28.03.2020 05:00:00 8,9 4,5 5 3 SO 1017,6
28.03.2020 04:00:00 8,8 4,6 7 4 SO 1018,1
28.03.2020 03:00:00 8,8 4,6 8 4 SO 1018,5
28.03.2020 02:00:00 9,0 4,8 7 4 SO 1018,9
28.03.2020 01:00:00 9,0 5,0 7 4 SSO 1019,1
28.03.2020 00:00:00 9,1 5,3 5 3 SO 1019,2
27.03.2020 23:00:00 9,6 5,0 4 2 SSO 1019,3
27.03.2020 22:00:00 9,9 4,5 6 3 SO 1018,7
27.03.2020 21:00:00 10,0 4,8 6 3 SO 1018,3
27.03.2020 20:00:00 10,1 4,7 4 2 OSO 1017,5
27.03.2020 19:00:00 10,2 4,6 5 3 OSO 1017,2
27.03.2020 18:00:00 10,8 4,5 4 2 OSO 1017,2
27.03.2020 17:00:00 10,9 4,1 4 2 NO 1017,4
27.03.2020 16:00:00 10,8 3,6 5 3 NNO 1017,6
27.03.2020 15:00:00 10,4 3,2 3 2 N 1018,0
27.03.2020 14:00:00 10,3 2,9 4 2 N 1018,3
27.03.2020 13:00:00 9,3 2,8 3 2 OSO 1018,2
27.03.2020 12:00:00 8,7 2,7 3 2 O 1018,1
27.03.2020 11:00:00 7,5 2,8 4 2 O 1017,8
27.03.2020 10:00:00 6,1 2,6 6 4 SO 1017,5
27.03.2020 09:00:00 5,5 2,5 6 3 OSO 1017,0
27.03.2020 08:00:00 5,1 2,1 8 5 OSO 1016,7
27.03.2020 07:00:00 5,1 1,9 5 3 OSO 1016,4
27.03.2020 06:00:00 4,9 2,1 5 3 OSO 1016,4
27.03.2020 05:00:00 4,9 2,1 6 3 O 1016,4
27.03.2020 04:00:00 4,7 2,6 5 3 OSO 1016,7
27.03.2020 03:00:00 4,5 2,7 5 3 OSO 1017,2
27.03.2020 02:00:00 4,3 2,8 7 4 OSO 1017,5
27.03.2020 01:00:00 4,2 2,9 6 3 OSO 1017,8
27.03.2020 00:00:00 4,2 3,0 5 3 OSO 1018,2
26.03.2020 23:00:00 4,2 2,9 5 3 O 1018,1
26.03.2020 22:00:00 4,1 2,5 7 4 OSO 1017,8
26.03.2020 21:00:00 4,1 2,6 6 4 OSO 1017,6
26.03.2020 20:00:00 4,1 2,6 5 3 O 1017,0
26.03.2020 19:00:00 4,2 2,5 5 3 O 1016,5
26.03.2020 18:00:00 4,1 2,3 5 3 O 1016,4
26.03.2020 17:00:00 3,8 1,8 3 2 ONO 1016,7
26.03.2020 16:00:00 3,8 2,0 3 2 ONO 1016,8
26.03.2020 15:00:00 3,3 1,8 6 3 N 1016,9
26.03.2020 14:00:00 2,9 1,6 5 3 NNO 1017,4
26.03.2020 13:00:00 2,4 0,8 6 3 NNO 1017,8
26.03.2020 12:00:00 2,9 0,3 5 3 N 1017,8
26.03.2020 11:00:00 2,1 0,3 5 3 N 1017,9
26.03.2020 10:00:00 1,5 0,2 10 5 NNE 1017,8
26.03.2020 09:00:00 1,4 -0,7 9 5 ENE 1017,9
26.03.2020 08:00:00 2,8 -5,1 7 4 N 1017,4
26.03.2020 07:00:00 2,8 -4,6 4 2 O 1016,9
26.03.2020 06:00:00 3,4 -5,8 5 3 N 1017,0
26.03.2020 05:00:00 3,0 -5,6 5 3 N 1017,6
26.03.2020 04:00:00 3,0 -5,6 5 3 N 1018,1
26.03.2020 03:00:00 3,2 -5,2 7 4 N 1018,9
26.03.2020 02:00:00 3,7 -5,2 13 7 NE 1019,2
26.03.2020 01:00:00 3,9 -5,3 14 7 NE 1019,5
26.03.2020 00:00:00 4,1 -4,4 16 9 NE 1020,3
25.03.2020 23:00:00 4,3 -4,2 18 10 NE 1020,4
25.03.2020 22:00:00 5,0 -4,0 16 9 NE 1020,3
25.03.2020 21:00:00 5,8 -4,1 17 9 NE 1020,2
25.03.2020 20:00:00 6,4 -4,4 9 5 NE 1019,7
25.03.2020 19:00:00 7,3 -5,7 17 9 E 1019,1
25.03.2020 18:00:00 7,3 -4,8 18 10 E 1019,5
25.03.2020 17:00:00 7,5 -4,9 21 12 ENE 1019,8
25.03.2020 16:00:00 7,1 -5,9 21 11 E 1020,3
25.03.2020 15:00:00 7,9 -5,6 21 11 ENE 1020,4
25.03.2020 14:00:00 8,0 -5,5 25 14 E 1021,0
25.03.2020 13:00:00 8,0 -6,5 22 12 ENE 1021,1
25.03.2020 12:00:00 7,5 -7,4 31 17 ENE 1021,4
25.03.2020 11:00:00 6,9 -6,4 25 13 NE 1021,9
25.03.2020 10:00:00 6,0 -5,6 14 8 NE 1022,4
25.03.2020 09:00:00 5,4 -4,5 10 5 NE 1022,1
25.03.2020 08:00:00 4,3 -3,2 9 5 NNE 1022,4
25.03.2020 07:00:00 4,7 -3,8 6 3 N 1022,3
25.03.2020 06:00:00 5,7 -5,9 3 2 ESE -
25.03.2020 05:00:00 5,7 -5,9 3 2 ESE 1023,3
25.03.2020 04:00:00 6,0 -5,9 4 2 SE 1023,7
25.03.2020 03:00:00 6,2 -5,8 6 3 ESE 1024,4
25.03.2020 02:00:00 6,2 -5,8 - - - 1024,9
25.03.2020 01:00:00 6,3 -5,4 9 5 ESE 1025,1
25.03.2020 00:00:00 6,2 -5,5 13 7 E 1025,4
24.03.2020 23:00:00 6,4 -5,0 18 10 E 1025,4
24.03.2020 22:00:00 7,2 -7,3 19 10 E 1024,9
24.03.2020 21:00:00 7,9 -9,1 18 10 E 1024,4
24.03.2020 20:00:00 8,7 -9,8 14 8 E 1024,3
24.03.2020 19:00:00 10,0 -10,8 13 7 E 1023,8
24.03.2020 18:00:00 10,5 -11,5 13 7 ENE 1023,7
24.03.2020 17:00:00 11,1 -11,0 7 4 ENE 1024,0
24.03.2020 16:00:00 10,4 -10,4 12 6 E 1024,9
24.03.2020 15:00:00 9,8 -10,9 8 5 NNE 1025,4
24.03.2020 14:00:00 9,9 -10,8 9 5 NNE 1025,9
24.03.2020 13:00:00 9,3 -10,3 5 3 ONO 1026,5
24.03.2020 12:00:00 - - - - - -

tt = Temperatura
td = dewpoint
ff = velocità del vento
dd = direzione del vento
ppp = reduced air pressure

Stazioni seguenti

WeatherPro
AMSI
MeteoEarth